Location: Oberwangen
(47.4286°N, 8.9679°E)
Time: 05:45:17
(UTC+00:00)

Cosmos 1447 Rocket - Pass Details

Date: 20 June 2021
Orbit: 954 x 996 km, 82.9° (Epoch: 28 July)

Event Time Altitude Azimuth Distance (km) Brightness Sun altitude
Exits shadow 21:44:54 18° 185° (S) 2,181 5.8 -15.6°
Maximum altitude 21:49:40 88° 99° (E) 975 4.5 -15.9°
Drops below altitude 10° 21:55:53 10° 9° (N) 2,705 7.7 -16.3°
Sets 21:58:23 0° 10° (N) 3,652 8.6 -16.4°
